Location: Kawakawa
(35.3830°S, 174.0670°E)
Time: 03:09:07
(UTC+12:00)

Cosmos 1420 Rocket - Pass Details

Date: 15 August 2020
Orbit: 754 x 781 km, 74.0° (Epoch: 19 September)

Event Time Altitude Azimuth Distance (km) Brightness Sun altitude
Rises 18:32:18 0° 337° (NNW) 3,232 7.8 -8.8°
Reaches altitude 10° 18:34:41 10° 334° (NNW) 2,309 7.0 -9.3°
Maximum altitude 18:39:54 67° 252° (WSW) 838 4.4 -10.3°
Drops below altitude 10° 18:45:09 10° 168° (SSE) 2,321 6.3 -11.4°
Sets 18:47:34 0° 165° (SSE) 3,250 7.0 -11.9°
